KD2ZLA Weather Reports


time (UTC)temp
C
wind
direction
speed
KPH
gust
KPH
rain 1hr
cm
rain 24hr
cm
rain mn
cm
humidity
%
barometer
mb
20260504050445 8 244 6.4 8.0 0.00 0.00 0.00 80 1007.0
20260504045942 8 291 0.0 6.4 0.00 0.00 0.00 80 1007.0
20260504045437 7 274 6.4 8.0 0.00 0.00 0.00 81 1007.1
20260504044934 7 321 1.6 4.8 0.00 0.00 0.00 81 1007.2
20260504044431 7 283 3.2 6.4 0.00 0.00 0.00 81 1007.3
20260504043929 7 271 3.2 6.4 0.00 0.00 0.00 80 1007.1
20260504043426 7 213 8.0 14.5 0.00 0.00 0.00 80 1007.2
20260504042923 7 247 3.2 12.9 0.00 0.00 0.00 80 1007.3
20260504042419 7 283 8.0 24.1 0.00 0.00 0.00 79 1007.1
20260504041916 7 289 3.2 11.3 0.00 0.00 0.00 79 1007.0
20260504041412 7 231 12.9 16.1 0.00 0.00 0.00 78 1007.1
20260504040908 7 266 3.2 11.3 0.00 0.00 0.00 77 1007.1
20260504040406 7 241 3.2 19.3 0.00 0.00 0.00 75 1007.0
20260504035902 8 234 6.4 20.9 0.00 0.00 0.00 74 1007.1
20260504035359 8 257 6.4 22.5 0.00 0.00 0.00 73 1007.0
20260504034856 8 260 3.2 17.7 0.00 0.00 0.00 70 1007.1
20260504034353 8 241 11.3 20.9 0.00 0.00 0.00 69 1007.3
20260504033850 8 287 12.9 17.7 0.00 0.00 0.00 67 1007.0
20260504033348 8 245 4.8 14.5 0.00 0.00 0.00 63 1007.1
20260504032845 8 308 11.3 19.3 0.00 0.00 0.00 62 1007.1
20260504032342 8 240 6.4 14.5 0.00 0.00 0.00 61 1007.0
20260504031839 9 265 6.4 16.1 0.00 0.00 0.00 60 1006.9
20260504031336 9 224 9.7 14.5 0.00 0.00 0.00 59 1007.1
20260504030832 9 348 3.2 9.7 0.00 0.00 0.00 58 1007.3
20260504030330 9 235 4.8 8.0 0.00 0.00 0.00 57 1007.2
20260504025826 9 244 6.4 14.5 0.00 0.00 0.00 56 1007.2
20260504025323 9 239 6.4 8.0 0.00 0.00 0.00 56 1007.5
20260504024819 9 260 1.6 8.0 0.00 0.00 0.00 55 1007.6
20260504024316 9 230 3.2 9.7 0.00 0.00 0.00 55 1007.7
20260504023813 9 280 6.4 12.9 0.00 0.00 0.00 55 1007.4
20260504023309 9 264 6.4 11.3 0.00 0.00 0.00 54 1007.4
20260504022805 9 240 3.2 8.0 0.00 0.00 0.00 54 1007.6
20260504022304 9 299 8.0 14.5 0.00 0.00 0.00 54 1007.5
20260504021758 9 307 4.8 8.0 0.00 0.00 0.00 54 1007.8
20260504021256 9 249 3.2 16.1 0.00 0.00 0.00 54 1007.7
20260504020753 9 261 8.0 9.7 0.00 0.00 0.00 53 1007.7
20260504020249 9 277 4.8 17.7 0.00 0.00 0.00 53 1007.8
20260504015745 9 257 9.7 9.7 0.00 0.00 0.00 52 1007.9
20260504015242 9 266 8.0 11.3 0.00 0.00 0.00 51 1007.7
20260504014737 9 246 9.7 11.3 0.00 0.00 0.00 49 1007.9
20260504014234 10 299 12.9 16.1 0.00 0.00 0.00 47 1007.7
20260504013732 10 253 6.4 12.9 0.00 0.00 0.00 45 1007.9
20260504013230 10 287 3.2 6.4 0.00 0.00 0.00 43 1007.8
20260504012726 10 251 1.6 17.7 0.00 0.00 0.00 43 1007.8
20260504012224 10 253 3.2 16.1 0.00 0.00 0.00 43 1007.7
20260504011721 10 239 8.0 14.5 0.00 0.00 0.00 43 1007.5
20260504011217 10 254 6.4 11.3 0.00 0.00 0.00 42 1007.5
20260504010713 10 235 9.7 12.9 0.00 0.00 0.00 43 1007.4
20260504010210 10 302 6.4 14.5 0.00 0.00 0.00 42 1007.7
20260504005706 10 217 14.5 17.7 0.00 0.00 0.00 42 1007.7
20260504005203 10 230 16.1 17.7 0.00 0.00 0.00 41 1007.7
20260504004701 10 308 6.4 12.9 0.00 0.00 0.00 42 1007.5
20260504004157 10 279 6.4 16.1 0.00 0.00 0.00 41 1007.6
20260504003654 10 298 6.4 12.9 0.00 0.00 0.00 42 1007.6
20260504003151 10 284 6.4 9.7 0.00 0.00 0.00 42 1007.4
20260504002647 10 243 8.0 20.9 0.00 0.00 0.00 41 1007.4
20260504002145 10 255 8.0 19.3 0.00 0.00 0.00 41 1007.4
20260504001643 10 280 4.8 14.5 0.00 0.00 0.00 41 1007.5
20260504001138 10 299 12.9 25.7 0.00 0.00 0.00 40 1007.6
20260504000636 10 312 9.7 12.9 0.00 0.00 0.00 41 1007.6
20260504000133 10 291 6.4 24.1 0.00 0.00 0.00 40 1007.5
20260503235631 10 248 3.2 12.9 0.00 0.00 0.00 40 1007.4
20260503235128 10 279 3.2 9.7 0.00 0.00 0.00 40 1007.4
20260503234626 10 309 14.5 16.1 0.00 0.00 0.00 40 1007.3
20260503234124 10 247 6.4 17.7 0.00 0.00 0.00 40 1007.4
20260503233621 10 237 9.7 24.1 0.00 0.00 0.00 39 1007.1
20260503233116 11 226 14.5 16.1 0.00 0.00 0.00 39 1007.4
20260503232613 11 298 6.4 9.7 0.00 0.00 0.00 40 1007.5
20260503232110 11 196 3.2 17.7 0.00 0.00 0.00 39 1007.4
20260503231609 11 304 8.0 17.7 0.00 0.00 0.00 40 1007.4
20260503231105 10 268 6.4 16.1 0.00 0.00 0.00 40 1007.6
20260503230602 11 251 17.7 25.7 0.00 0.00 0.00 39 1007.6
20260503230059 11 301 20.9 20.9 0.00 0.00 0.00 40 1007.4
20260503225555 11 287 22.5 25.7 0.00 0.00 0.00 39 1007.4
20260503225051 11 286 9.7 27.4 0.00 0.00 0.00 40 1007.6
20260503224549 11 275 11.3 24.1 0.00 0.00 0.00 40 1007.4
20260503224046 11 266 12.9 30.6 0.00 0.00 0.00 38 1007.6
20260503223544 11 271 8.0 25.7 0.00 0.00 0.00 39 1007.5
20260503223039 11 244 6.4 20.9 0.00 0.00 0.00 40 1007.5
20260503222538 11 274 6.4 14.5 0.00 0.00 0.00 39 1007.4
20260503222035 11 261 8.0 27.4 0.00 0.00 0.00 40 1007.5
20260503221533 11 267 9.7 25.7 0.00 0.00 0.00 39 1007.7
20260503221031 11 257 8.0 20.9 0.00 0.00 0.00 37 1007.6
20260503220526 12 276 6.4 22.5 0.00 0.00 0.00 36 1007.5
20260503220023 12 354 4.8 14.5 0.00 0.00 0.00 36 1007.7
20260503215521 11 251 11.3 24.1 0.00 0.00 0.00 36 1007.5
20260503215017 11 272 17.7 29.0 0.00 0.00 0.00 35 1007.8
20260503214516 11 273 9.7 22.5 0.00 0.00 0.00 36 1007.4
20260503214012 11 243 17.7 20.9 0.00 0.00 0.00 36 1007.6
20260503213511 11 299 19.3 20.9 0.00 0.00 0.00 36 1007.9
20260503213007 11 272 11.3 27.4 0.00 0.00 0.00 35 1007.9
20260503212504 11 301 9.7 30.6 0.00 0.00 0.00 35 1007.7
20260503212002 11 242 20.9 29.0 0.00 0.00 0.00 35 1007.8
20260503211459 12 227 24.1 33.8 0.00 0.00 0.00 34 1007.7
20260503210954 12 316 12.9 20.9 0.00 0.00 0.00 34 1007.9
20260503210452 11 319 6.4 25.7 0.00 0.00 0.00 34 1007.7
20260503205952 12 285 20.9 24.1 0.00 0.00 0.00 34 1007.8
20260503205449 12 303 16.1 20.9 0.00 0.00 0.00 33 1007.6
20260503204945 12 339 8.0 22.5 0.00 0.00 0.00 35 1007.6
20260503204442 12 275 12.9 20.9 0.00 0.00 0.00 35 1007.6
20260503203939 12 300 17.7 30.6 0.00 0.00 0.00 34 1007.7
20260503203437 12 357 9.7 20.9 0.00 0.00 0.00 33 1007.7
20260503202933 12 290 14.5 24.1 0.00 0.00 0.00 32 1007.7
20260503202432 12 344 11.3 20.9 0.00 0.00 0.00 33 1007.8
20260503201930 12 297 12.9 25.7 0.00 0.00 0.00 32 1007.8
20260503201427 12 314 12.9 33.8 0.00 0.00 0.00 36 1007.7
20260503200924 11 289 11.3 17.7 0.00 0.00 0.00 33 1007.7
20260503200420 12 22 9.7 30.6 0.00 0.00 0.00 33 1007.8
20260503195917 12 286 4.8 16.1 0.00 0.00 0.00 35 1007.8
20260503195414 12 279 4.8 29.0 0.00 0.00 0.00 35 1007.9
20260503194911 12 266 19.3 20.9 0.00 0.00 0.00 35 1007.9
20260503194408 12 352 8.0 17.7 0.00 0.00 0.00 33 1008.3
20260503193903 11 344 4.8 12.9 0.00 0.00 0.00 35 1008.3
20260503193359 11 287 14.5 29.0 0.00 0.00 0.00 34 1008.2
20260503192855 11 304 9.7 16.1 0.00 0.00 0.00 35 1008.6
20260503192350 11 263 4.8 16.1 0.00 0.00 0.00 36 1008.6
20260503191847 11 268 6.4 19.3 0.00 0.00 0.00 37 1008.6
20260503191345 11 358 9.7 22.5 0.00 0.00 0.00 36 1008.8
20260503190841 11 325 6.4 16.1 0.00 0.00 0.00 36 1008.8
20260503190338 10 284 9.7 25.7 0.00 0.00 0.00 36 1008.5
20260503185835 11 347 12.9 16.1 0.00 0.00 0.00 37 1008.7
20260503185331 10 329 9.7 25.7 0.00 0.00 0.00 36 1008.7
20260503184826 11 327 12.9 20.9 0.00 0.00 0.00 36 1008.8
20260503184322 10 302 8.0 12.9 0.00 0.00 0.00 36 1008.8
20260503183818 11 291 19.3 25.7 0.00 0.00 0.00 35 1008.8
20260503183315 11 43 12.9 17.7 0.00 0.00 0.00 35 1008.9
20260503182812 10 301 9.7 14.5 0.00 0.00 0.00 37 1009.2
20260503182312 11 308 6.4 9.7 0.00 0.00 0.00 40 1009.1
20260503181808 10 276 16.1 17.7 0.00 0.00 0.00 36 1009.1
20260503181305 10 10 16.1 20.9 0.00 0.00 0.00 34 1009.3
20260503180801 10 4 4.8 16.1 0.00 0.00 0.00 37 1009.2
20260503180300 10 335 12.9 20.9 0.00 0.00 0.00 36 1009.3
20260503175755 10 41 14.5 24.1 0.00 0.00 0.00 36 1009.2
20260503175254 11 275 6.4 19.3 0.00 0.00 0.00 36 1009.3
20260503174754 11 308 12.9 22.5 0.00 0.00 0.00 42 1009.4
20260503174254 10 357 11.3 20.9 0.00 0.00 0.00 40 1009.3
20260503173753 10 337 19.3 20.9 0.00 0.00 0.00 37 1009.5
20260503173250 11 286 6.4 17.7 0.00 0.00 0.00 37 1009.5
20260503172747 11 245 6.4 20.9 0.00 0.00 0.00 38 1009.5
20260503172244 10 337 8.0 25.7 0.00 0.00 0.00 38 1009.7
20260503171740 10 329 14.5 19.3 0.00 0.00 0.00 39 1009.6
20260503171237 10 21 14.5 22.5 0.00 0.00 0.00 42 1009.7
20260503170734 10 9 9.7 14.5 0.00 0.00 0.00 40 1009.8
20260503170231 10 41 19.3 30.6 0.00 0.00 0.00 40 1009.6
20260503160153 10 34 9.7 16.1 0.00 0.00 0.00 41 1010.2
20260503150623 9 20 11.3 27.4 0.00 0.00 0.00 43 1011.1
20260503150119 9 358 3.2 19.3 0.00 0.00 0.00 43 1011.1
20260503131013 6 37 14.5 16.1 0.00 0.00 0.00 64 1011.8
20260503130510 6 308 9.7 16.1 0.00 0.00 0.00 64 1011.8
20260503110407 3 269 1.6 1.6 0.00 0.00 0.00 85 1011.5
20260503090258 3 218 0.0 3.2 0.00 0.00 0.00 87 1011.4
20260503081231 3 324 0.0 3.2 0.00 0.00 0.00 85 1011.7
20260503080726 3 290 0.0 6.4 0.00 0.00 0.00 85 1011.4
20260503080224 3 240 3.2 3.2 0.00 0.00 0.00 85 1011.7
20260503072700 3 253 3.2 4.8 0.00 0.00 0.00 84 1011.5
20260503072157 3 307 1.6 3.2 0.00 0.00 0.00 84 1011.6
20260503071654 3 299 0.0 3.2 0.00 0.00 0.00 84 1011.5
20260503071151 3 236 6.4 6.4 0.00 0.00 0.00 83 1011.4
20260503070647 3 235 3.2 4.8 0.00 0.00 0.00 84 1011.5
20260503070146 3 3 0.0 3.2 0.00 0.00 0.00 83 1011.5
20260503060110 4 304 0.0 6.4 0.00 0.00 0.00 82 1011.7
20260503055101 4 18 3.2 3.2 0.00 0.00 0.00 82 1011.6
20260503054557 4 212 4.8 4.8 0.00 0.00 0.00 82 1011.8